Regional Weather Roundup
Issued by NWS Green Bay, WI

Home | Current Version | Previous Version | Text Only | Print | Product List | Glossary On
Versions: 1 2 3 4 5 6 7 8 9 10 11 12 13 14 15 16 17 18 19 20 21 22 23 24 25 26 27 28 29 30 31 32 33 34 35 36 37 38 39 40 41 42 43 44 45 46 47 48 49 50
000
ASUS43 KGRB 301711
RWRGRB

NORTH-CENTRAL AND NORTHEAST WISCONSIN REGIONAL WEATHER ROUNDUP
NATIONAL WEATHER SERVICE GREEN BAY WI
1200 PM CDT THU JUL 30 2015

WIZ005-009-010>012-018-019-301800-
NORTH CENTRAL WISCONSIN

CITY           SKY/WX    TMP DP  RH WIND       PRES   REMARKS
IRONWOOD       MOSUNNY   73  57  56 W9        29.92F
MANITOWISH WTR PTSUNNY   74  54  49 NW15G24   29.97R
ARBOR VITAE    MOSUNNY   77  56  48 NW12G21   29.97R
EAGLE RIVER    MOSUNNY   77  46  33 NW22G30   29.96R
LAND O LAKES   SUNNY     77  49  37 NW10G22   29.96R
RHINELANDER    MOSUNNY   78  54  43 NW12G24   29.98R
PHILLIPS       MOSUNNY   76  56  49 W10G20    29.99R
ANTIGO         PTSUNNY   76  55  46 W18G29    29.98S
TOMAHAWK       MOSUNNY   77  54  45 W15G25    29.99S
MERRILL        NOT AVBL
$$

WIZ013-073-301800-
NORTHEAST WISCONSIN

CITY           SKY/WX    TMP DP  RH WIND       PRES   REMARKS
IRON MOUNTAIN  NOT AVBL
MARINETTE      SUNNY     81  54  39 W13G23    29.90R
OCONTO         SUNNY     82  56  39 W16G24    29.92S
$$

WIZ017-030-035>037-045-301800-
CENTRAL WISCONSIN

CITY           SKY/WX    TMP DP  RH WIND       PRES   REMARKS
MEDFORD        MOSUNNY   76  59  57 W14G21    30.01S
WAUSAU         SUNNY     81  56  42 W16G29    29.98S
MOSINEE        MOSUNNY   79  57  47 W9G24     30.01R
MARSHFIELD     MOSUNNY   80  57  45 W13G21    30.02S
WISC RAPIDS    MOSUNNY   83  55  38 W12G22    30.03S
STEVENS POINT  SUNNY     78  58  49 W12G17    30.01S
WAUPACA        SUNNY     84  56  37 W15       29.99S
SHAWANO        PTSUNNY   82  55  38 NW13G22   29.96S
CLINTONVILLE   PTSUNNY   81  55  41 W10       29.97S
$$

WIZ038-039-048-051-301800-
FOX VALLEY

CITY           SKY/WX    TMP DP  RH WIND       PRES   REMARKS
NWS GREEN BAY  SUNNY     82  60  47 W14G20    29.96S
APPLETON       MOSUNNY   81  54  39 W16G29    30.00R
OSHKOSH        SUNNY     83  57  41 W15G25    29.99S
FOND DU LAC    SUNNY     84  59  42 W15       30.00F
$$

WIZ022-050-052-301800-
EAST CENTRAL WISCONSIN

CITY           SKY/WX    TMP DP  RH WIND       PRES   REMARKS
STURGEON BAY   SUNNY     79  55  44 W16G22    29.95R
MANITOWOC      SUNNY     82  59  45 MISG      29.96F
SHEBOYGAN      SUNNY     82  58  43 W16G24    29.99S
$$

LMZ563-521-522-541>543-301800-
LAKESHORE

STATION/POSITION TIME  TEMP    WIND        PRES    VSBY  WAVE
                       AIR SEA DIR/SP/G                  HT/PER
                 (UTC) (F)     (DEG/KT/KT) (MB)    (MI)  (FT/S)
SHEBOYGAN LKSHOR 1700   80     300/ 16/ 21 1015.2F
KEWAUNEE LKSHORE 1600   78     290/ 13/ 20 1013.3R
ALGOMA MARINA    1612          320/ 11/ 20   N/A
NORTHPORT PIER   1600   76     280/  7/ 13 1011.9R
N MID LAKE BUOY  1650   71 68  240/ 14/ 16 1011.2R         3/ 5
S GREEN BAY BUOY 1600   68 66  250/ 10/ 12 1014.8
SISTER BAY LKSHO 1644   79     290/ 15/ 17   N/A
CHAMBERS ISLAND  1600   76     230/  8/ 13 1012.2S
MENOMINEE LKSHOR 1600   79     270/  9/ 19 1013.1S
$$


USA.gov is the U.S. government's official web portal to all federal, state and local government web resources and services.